Skip Page Navigation
NASA JPL Caltech
NASA Logo - Jet Propulsion Laboratory + View the NASA Portal
+ Near-Earth Object (NEO) Program
Search JPL
JPL Home Earth Solar System Stars & Galaxies Technology
JPL Solar System Dynamics
BODIES ORBITS EPHEMERIDES TOOLS PHYSICAL DATA DISCOVERY FAQ SITE MAP
JPL Small-Body Database Browser
Search: [ help ]  
349507 (2008 QY)
Classification: Apollo [NEO, PHA]          SPK-ID: 2349507
Ephemeris | Orbit Diagram | Orbital Elements | Physical Parameters | Discovery Circumstances | Close-Approach Data ]

[ hide orbit diagram ]
Orbit Diagram
Note: Make sure you have Java enabled on your browser to see the applet. This applet is provided as a 3D orbit visualization tool. The applet was implemented using 2-body methods, and hence should not be used for determining accurate long-term trajectories (over several years or decades) or planetary encounter circumstances. For accurate long-term ephemerides, please instead use our Horizons system.
Orbit Viewer

Additional Notes: the orbits shown in the applet are color coded. The planets are white lines, and the asteroid/comet is a blue line. The bright white line indicates the portion of the orbit that is above the ecliptic plane, and the darker portion is below the ecliptic plane. Likewise for the asteroid/comet orbit, the light blue indicates the portion above the ecliptic plane, and the dark blue the portion below the ecliptic plane.

Orbit Viewer applet originally written and kindly provided by Osamu Ajiki (AstroArts), and further modified by Ron Baalke (JPL).


Orbital Elements at Epoch 2456400.5 (2013-Apr-18.0) TDB
Reference: JPL 39 (heliocentric ecliptic J2000)
 Element Value Uncertainty (1-sigma)   Units 
e .5815232438898758 1.2034e-07  
a 1.166966829576929 2.4285e-08 AU
q .4883484933294694 1.4321e-07 AU
i 13.58202757662174 1.0175e-05 deg
node 2.016755014919652 3.28e-05 deg
peri 254.8082135792968 3.0197e-05 deg
M 295.8169770755167 1.0448e-05 deg
tp 2456482.592571786385
(2013-Jul-09.09257179)
1.5704e-05 JED
period 460.4539408788928
1.26
1.4373e-05
3.935e-08
d
yr
n .7818371568562297 2.4406e-08 deg/d
Q 1.845585165824388 3.8408e-08 AU
  Orbit Determination Parameters
   # obs. used (total)      117  
   # delay obs. used      1  
   # Doppler obs. used      2  
   data-arc span      8485 days (23.23 yr)  
   first obs. used      1989-09-30  
   last obs. used      2012-12-23  
   planetary ephem.      DE405  
   SB-pert. ephem.      SB405-CPV-2  
   condition code      0  
   fit RMS      .5592  
   data source      ORB  
   producer      Otto Matic  
   solution date      2013-Apr-29 15:41:55  

Additional Information
 Earth MOID = .0305727 AU 
 T_jup = 5.208 
[ show covariance matrix ]

Ephemeris | Orbit Diagram | Orbital Elements | Physical Parameters | Discovery Circumstances | Close-Approach Data ]

Physical Parameter Table
Parameter Symbol Value Units Sigma Reference Notes
absolute magnitude H 18.571 mag .44455 39 autocmod 2.5c

349507 (2008 QY)          Discovered 2008-Aug-21 by Spacewatch at Kitt Peak (691)
Reference: 20121228/Numbers.arcLast Updated: 2013-01-02

[ show close-approach data ]
Ephemeris | Orbit Diagram | Orbital Elements | Physical Parameters | Discovery Circumstances | Close-Approach Data ]
ABOUT SSD CREDITS/AWARDS PRIVACY/COPYRIGHT GLOSSARY LINKS
FirstGov 2013-May-19 15:03 UT
(server date/time)  
NASA Home Page
Site Manager:   Donald K. Yeomans
Webmaster  Alan B. Chamberlin